Date,TemperatureHighF,TemperatureAvgF,TemperatureLowF,DewpointHighF,DewpointAvgF,DewpointLowF,HumidityHigh,HumidityAvg,HumidityLow,PressureMaxIn,PressureMinIn,WindSpeedMaxMPH,WindSpeedAvgMPH,GustSpeedMaxMPH,PrecipitationSumIn
2013-1-1,27.0,20.0,12.0,21.0,17.7,10.0,100,90,79,30.28,30.13,14,8,0,0.00
2013-1-2,36.0,23.2,12.0,28.0,19.5,10.0,100,86,69,30.28,30.14,16,8,23,0.00
2013-1-3,36.0,24.0,16.0,25.0,19.1,14.0,100,82,55,30.45,30.28,14,8,17,0.00
2013-1-4,45.0,30.4,18.0,27.0,21.5,14.0,100,71,41,30.40,30.19,17,8,25,0.00
2013-1-5,45.0,35.0,27.0,30.0,26.0,19.0,92,71,47,30.29,30.09,17,10,20,0.00
2013-1-6,50.0,32.6,18.0,25.0,21.0,16.0,92,66,29,30.40,30.22,12,7,0,0.00
2013-1-7,54.0,38.9,28.0,27.0,23.7,21.0,74,55,30,30.22,29.99,20,14,27,0.00
2013-1-8,57.0,40.2,30.0,32.0,28.3,25.0,92,65,35,30.19,29.93,18,9,23,0.00
2013-1-9,52.0,37.3,23.0,34.0,28.3,21.0,100,72,43,30.41,30.19,13,6,0,0.00
2013-1-10,46.0,42.6,39.0,46.0,41.8,34.0,100,97,70,30.23,29.72,16,7,22,0.00
2013-1-11,57.0,48.1,36.0,45.0,40.7,21.0,100,78,29,29.87,29.50,23,16,29,0.00
2013-1-12,36.0,26.3,19.0,30.0,14.7,10.0,80,62,49,30.12,29.86,23,17,30,0.00
2013-1-13,28.0,18.3,10.0,12.0,7.7,3.0,85,64,35,30.33,30.08,20,9,25,0.00
2013-1-14,30.0,20.4,10.0,19.0,10.6,5.0,92,67,36,30.45,30.30,9,2,0,0.00
2013-1-15,34.0,22.9,10.0,18.0,12.0,7.0,92,65,37,30.32,30.17,6,1,0,0.00
2013-1-16,54.0,33.7,18.0,30.0,22.6,12.0,85,65,40,30.25,30.05,14,7,17,0.00
2013-1-17,55.0,40.0,27.0,32.0,27.6,25.0,92,63,34,30.50,30.24,12,7,0,0.00
2013-1-18,61.0,45.6,34.0,32.0,29.6,28.0,80,56,31,30.38,30.04,23,14,29,0.00
2013-1-19,63.0,44.3,27.0,32.0,27.3,23.0,100,56,23,30.24,30.00,17,7,21,0.00
2013-1-20,52.0,34.4,25.0,28.0,23.0,12.0,92,65,40,30.38,30.17,22,8,28,0.00
2013-1-21,37.0,25.6,12.0,16.0,11.2,10.0,92,57,32,30.41,30.23,10,5,0,0.00
2013-1-22,43.0,27.1,16.0,21.0,16.6,12.0,85,66,41,30.25,30.15,10,5,16,0.00
2013-1-23,55.0,33.7,16.0,34.0,22.9,14.0,92,67,37,30.32,30.11,17,4,23,0.00
2013-1-24,30.0,23.8,19.0,19.0,14.0,9.0,79,66,49,30.35,30.10,18,9,24,0.00
2013-1-25,52.0,34.9,19.0,27.0,22.3,16.0,85,61,34,30.25,30.11,9,2,0,0.00
2013-1-26,54.0,41.5,27.0,41.0,32.1,23.0,93,70,46,30.22,29.95,20,10,24,0.00
2013-1-27,72.0,51.6,39.0,55.0,46.1,37.0,100,84,43,29.97,29.69,24,15,33,0.00
2013-1-28,73.0,54.2,32.0,59.0,44.7,30.0,100,74,30,29.80,29.63,25,12,35,0.00
2013-1-29,63.0,40.2,32.0,57.0,36.3,30.0,100,85,70,29.70,29.54,22,13,30,0.00
2013-1-30,32.0,27.6,19.0,30.0,22.6,18.0,100,81,63,29.97,29.66,25,14,31,0.00
2013-1-31,30.0,24.0,16.0,25.0,15.7,9.0,92,70,53,30.41,29.97,23,10,29,0.00
2013-2-1,37.0,24.3,12.0,16.0,9.4,3.0,85,55,29,30.40,30.12,16,8,22,0.00
2013-2-2,55.0,39.7,25.0,34.0,26.3,16.0,100,61,34,30.28,30.13,16,10,24,0.00
2013-2-3,57.0,42.1,21.0,30.0,24.4,19.0,92,53,28,30.27,29.82,20,10,27,0.00
2013-2-4,55.0,43.2,30.0,30.0,28.1,27.0,86,57,32,29.96,29.79,16,8,21,0.00
2013-2-5,63.0,42.9,21.0,32.0,26.1,19.0,92,58,23,30.03,29.91,14,5,17,0.00
2013-2-6,55.0,46.6,30.0,54.0,42.0,25.0,100,83,56,30.02,29.80,17,10,24,0.00
2013-2-7,54.0,46.9,30.0,54.0,37.5,27.0,100,72,40,30.21,29.81,25,11,29,0.00
2013-2-8,46.0,33.0,21.0,34.0,28.1,21.0,100,83,52,30.31,30.09,14,6,16,0.00
2013-2-9,46.0,38.3,32.0,41.0,34.9,30.0,100,88,75,30.10,29.62,22,15,29,0.00
2013-2-10,48.0,40.8,30.0,45.0,30.0,23.0,100,67,42,30.08,29.47,35,18,43,0.00
2013-2-11,45.0,34.0,25.0,27.0,20.3,18.0,86,60,33,30.22,30.06,17,6,21,0.00
2013-2-12,39.0,33.8,28.0,30.0,25.1,21.0,100,71,48,30.15,30.00,8,3,0,0.00
2013-2-13,57.0,38.6,21.0,28.0,22.4,18.0,100,59,20,30.00,29.88,22,10,29,0.00
2013-2-14,48.0,39.1,30.0,34.0,27.6,16.0,86,64,43,30.28,29.92,22,11,29,0.00
2013-2-15,43.0,30.0,19.0,21.0,17.1,12.0,92,60,33,30.42,30.28,22,10,29,0.00
2013-2-16,55.0,32.5,12.0,32.0,18.8,9.0,92,60,32,30.37,29.98,21,9,28,0.00
2013-2-17,68.0,48.1,25.0,34.0,28.0,23.0,100,53,20,29.98,29.55,21,9,28,0.00
2013-2-18,55.0,44.3,25.0,34.0,24.7,16.0,69,46,31,30.14,29.43,36,19,46,0.00
2013-2-19,45.0,31.5,18.0,18.0,16.4,12.0,85,56,30,30.32,30.14,14,6,18,0.00
2013-2-20,32.0,28.5,25.0,28.0,21.3,7.0,100,78,36,30.21,29.96,20,12,25,0.00
2013-2-21,25.0,21.1,10.0,25.0,19.1,9.0,100,92,85,29.97,29.67,21,12,24,0.00
2013-2-22,23.0,13.2,3.0,16.0,9.2,1.0,100,84,72,30.11,29.90,14,8,0,0.00
2013-2-23,36.0,19.9,5.0,25.0,15.4,1.0,100,83,59,30.08,29.86,14,6,0,0.00
2013-2-24,39.0,30.0,12.0,32.0,24.6,10.0,100,81,64,29.87,29.75,17,9,17,0.00
2013-2-25,34.0,33.4,32.0,30.0,30.0,30.0,92,88,86,29.87,29.84,18,16,24,0.00
2013-2-26,34.0,28.8,21.0,25.0,23.5,19.0,92,80,69,29.92,29.77,15,10,21,0.00
2013-2-27,37.0,29.4,21.0,27.0,23.2,18.0,92,78,60,30.18,29.92,24,12,31,0.00
2013-2-28,34.0,27.2,19.0,27.0,23.0,18.0,100,84,69,30.24,30.17,17,9,23,0.00
2013-3-1,32.0,24.8,18.0,27.0,21.6,16.0,100,87,74,30.35,30.21,21,9,25,0.00
2013-3-2,34.0,24.7,10.0,27.0,20.7,9.0,100,84,68,30.35,30.11,10,6,0,0.00
2013-3-3,48.0,37.3,27.0,37.0,31.5,25.0,92,79,65,30.12,29.60,15,7,17,0.00
2013-3-4,43.0,37.3,32.0,36.0,33.2,25.0,93,84,69,30.10,29.55,28,14,39,0.00
2013-3-5,41.0,32.6,23.0,28.0,20.5,18.0,85,61,44,30.37,30.09,27,14,36,0.00
2013-3-6,45.0,33.1,21.0,27.0,21.7,18.0,85,64,45,30.41,30.13,16,7,22,0.00
2013-3-7,64.0,47.3,32.0,34.0,28.0,23.0,74,49,27,30.13,29.97,22,14,27,0.00
2013-3-8,61.0,51.2,43.0,50.0,40.8,30.0,93,68,57,30.04,29.85,23,15,30,0.00
2013-3-9,63.0,54.1,37.0,57.0,52.4,36.0,100,93,82,29.87,29.54,23,14,30,0.00
2013-3-10,37.0,32.0,30.0,36.0,27.9,21.0,93,84,68,30.04,29.65,36,21,45,0.00
2013-3-11,52.0,35.5,21.0,32.0,19.8,12.0,85,56,27,30.04,29.93,18,8,23,0.00
2013-3-12,54.0,43.4,30.0,37.0,29.0,19.0,86,59,29,30.35,30.01,20,8,28,0.00
2013-3-13,57.0,41.6,25.0,36.0,26.6,16.0,92,58,28,30.42,30.23,17,7,25,0.00
2013-3-14,77.0,56.3,41.0,45.0,38.0,32.0,80,54,23,30.24,30.07,16,8,21,0.00
2013-3-15,86.0,63.5,45.0,50.0,42.1,36.0,81,51,16,30.09,29.70,18,8,22,0.00
2013-3-16,64.0,48.2,36.0,48.0,38.1,30.0,87,68,50,29.98,29.71,30,18,33,0.00
2013-3-17,45.0,38.5,36.0,37.0,32.5,28.0,93,79,69,30.00,29.64,21,10,27,0.00
2013-3-18,57.0,45.4,37.0,39.0,31.0,25.0,100,62,28,30.01,29.73,21,9,25,0.00
2013-3-19,55.0,42.2,30.0,32.0,25.0,19.0,86,53,29,30.27,30.00,17,8,25,0.00
2013-3-20,48.0,38.3,28.0,32.0,23.6,16.0,100,60,31,30.41,29.98,15,7,20,0.00
2013-3-21,52.0,41.4,36.0,32.0,25.2,19.0,86,53,37,29.99,29.67,24,15,32,0.00
2013-3-22,52.0,39.1,32.0,36.0,32.4,30.0,93,78,50,29.96,29.82,14,7,0,0.00
2013-3-23,36.0,34.5,32.0,36.0,33.0,30.0,100,94,86,29.96,29.80,25,13,33,0.00
2013-3-24,36.0,30.5,25.0,30.0,22.3,18.0,100,72,55,30.16,29.95,28,18,35,0.00
2013-3-25,37.0,29.7,21.0,25.0,19.0,18.0,92,65,44,30.37,30.16,22,13,31,0.00
2013-3-26,52.0,34.0,18.0,27.0,21.3,16.0,92,63,32,30.41,30.16,16,6,24,0.00
2013-3-27,63.0,47.4,37.0,39.0,28.7,23.0,75,49,29,30.17,30.05,17,10,24,0.00
2013-3-28,70.0,50.6,34.0,52.0,40.5,32.0,100,71,40,30.15,30.05,13,6,17,0.00
2013-3-29,73.0,58.4,39.0,55.0,50.2,39.0,100,77,49,30.13,30.01,15,7,20,0.00
2013-3-30,73.0,61.6,54.0,59.0,53.9,-99.9,100,81,46,30.02,29.88,15,7,24,0.00
2013-3-31,66.0,56.3,43.0,54.0,44.2,36.0,100,68,34,30.07,29.96,28,8,39,0.00
2013-4-1,41.0,37.5,34.0,37.0,29.9,-99.9,93,76,64,30.27,30.18,23,12,28,0.00
2013-4-2,43.0,37.8,34.0,34.0,30.4,28.0,93,75,56,30.28,30.20,14,7,20,0.00
2013-4-3,39.0,37.7,34.0,37.0,33.6,30.0,100,84,69,30.32,30.22,10,6,0,0.00
2013-4-4,59.0,45.6,37.0,43.0,38.6,36.0,100,77,51,30.24,30.10,9,4,0,0.00
2013-4-5,68.0,52.2,36.0,48.0,42.3,36.0,100,71,42,30.15,29.79,28,14,35,0.00
2013-4-6,75.0,62.2,52.0,48.0,45.8,41.0,81,57,31,29.87,29.69,21,11,28,0.00
2013-4-7,72.0,61.0,52.0,63.0,53.3,43.0,100,76,51,29.87,29.64,18,9,25,0.00
2013-4-8,73.0,66.3,59.0,64.0,61.0,57.0,100,83,64,29.68,29.55,20,12,28,0.00
2013-4-9,70.0,54.7,32.0,64.0,51.3,30.0,100,88,77,30.00,29.53,29,18,37,0.00
2013-4-10,34.0,30.3,28.0,30.0,28.1,27.0,100,90,80,30.04,29.54,17,8,22,0.00
2013-4-11,57.0,38.7,27.0,36.0,29.3,25.0,93,72,33,29.97,29.70,16,8,23,0.00
2013-4-12,59.0,44.1,30.0,41.0,32.8,27.0,92,67,38,30.03,29.85,12,6,16,0.00
2013-4-13,73.0,55.0,36.0,52.0,43.0,34.0,100,67,40,30.04,29.57,24,12,35,0.00
2013-4-14,72.0,63.1,55.0,54.0,44.5,28.0,72,52,25,29.74,29.44,29,16,37,0.00
2013-4-15,57.0,52.4,46.0,37.0,34.0,28.0,66,49,35,29.93,29.72,21,12,28,0.00
2013-4-16,48.0,44.5,41.0,41.0,35.1,30.0,93,69,52,30.07,29.90,23,16,30,0.00
2013-4-17,45.0,43.0,39.0,45.0,42.5,37.0,100,98,93,29.99,29.70,25,12,35,0.00
2013-4-18,39.0,36.6,30.0,37.0,30.2,25.0,100,78,60,30.09,29.72,27,19,35,0.00
2013-4-19,64.0,45.0,28.0,39.0,30.1,25.0,86,60,29,30.12,30.00,24,12,33,0.00
2013-4-20,63.0,50.4,37.0,43.0,36.7,32.0,86,61,36,30.08,29.96,21,11,28,0.00
2013-4-21,70.0,59.2,46.0,46.0,41.0,36.0,75,51,37,30.13,30.03,25,13,33,0.00
2013-4-22,73.0,56.5,36.0,57.0,47.0,36.0,100,71,53,30.07,29.81,32,14,44,0.00
2013-4-23,36.0,33.7,32.0,36.0,29.5,27.0,100,85,74,30.27,30.03,27,13,36,0.00
2013-4-24,61.0,42.8,27.0,36.0,29.9,25.0,100,65,29,30.30,30.19,12,6,16,0.00
2013-4-25,70.0,54.6,37.0,41.0,35.7,30.0,86,52,25,30.29,30.00,27,13,33,0.00
2013-4-26,61.0,53.2,50.0,52.0,47.4,36.0,100,82,38,30.15,30.03,20,10,29,0.00
2013-4-27,68.0,57.0,50.0,54.0,51.9,48.0,100,84,56,30.15,30.00,13,6,0,0.00
2013-4-28,82.0,64.2,48.0,57.0,52.5,48.0,100,71,30,30.01,29.76,17,11,23,0.00
2013-4-29,88.0,73.7,63.0,61.0,56.5,52.0,93,58,31,29.79,29.58,22,14,31,0.00
2013-4-30,84.0,73.6,63.0,64.0,58.1,50.0,82,59,44,29.75,29.64,25,18,33,0.00
2013-5-1,70.0,52.9,37.0,61.0,49.1,36.0,100,87,64,30.30,29.74,35,17,40,0.00
2013-5-2,54.0,41.9,34.0,37.0,33.3,27.0,100,75,37,30.50,30.26,35,22,43,0.00
2013-5-3,59.0,45.9,34.0,36.0,32.0,30.0,86,61,35,30.41,30.03,21,11,30,0.00
2013-5-4,54.0,44.2,34.0,43.0,34.4,28.0,93,68,52,30.11,29.97,28,16,37,0.00
2013-5-5,66.0,52.1,43.0,52.0,46.2,39.0,100,81,59,30.19,30.08,15,9,18,0.00
2013-5-6,72.0,55.8,39.0,54.0,48.5,39.0,100,79,46,30.16,30.03,8,3,0,0.00
2013-5-7,73.0,62.3,54.0,59.0,54.0,48.0,93,75,52,30.09,29.88,18,9,23,0.00
2013-5-8,81.0,65.9,55.0,66.0,57.4,48.0,100,75,43,30.01,29.75,28,13,52,0.00
2013-5-9,72.0,62.8,54.0,61.0,56.3,54.0,100,81,56,30.03,29.87,14,7,18,0.00
2013-5-10,72.0,59.9,54.0,55.0,51.2,-99.9,100,78,46,30.12,30.02,17,8,21,0.00
2013-5-11,70.0,58.4,48.0,54.0,43.7,-99.9,100,63,32,30.29,30.11,23,10,30,0.00
2013-5-12,73.0,57.6,41.0,50.0,43.4,34.0,93,62,38,30.28,30.05,18,8,28,0.00
2013-5-13,84.0,65.9,43.0,63.0,53.0,43.0,100,67,37,30.09,29.96,15,-2,20,0.00
2013-5-14,91.0,77.5,63.0,61.0,50.5,45.0,77,40,22,29.96,29.82,23,13,30,0.00
2013-5-15,82.0,70.9,61.0,64.0,58.4,55.0,93,66,44,29.88,29.82,21,12,27,0.00
2013-5-16,79.0,63.2,59.0,64.0,42.3,-99.9,100,82,57,29.89,29.79,14,6,20,0.00
2013-5-17,82.0,69.3,54.0,70.0,57.6,-99.9,100,79,54,29.91,29.82,15,7,20,0.00
2013-5-18,86.0,75.7,64.0,75.0,70.3,61.0,100,84,50,29.87,29.62,25,11,36,0.00
2013-5-19,84.0,70.4,61.0,70.0,62.8,55.0,93,77,56,29.78,29.52,22,10,39,0.00
2013-5-20,77.0,66.9,55.0,61.0,56.6,50.0,93,71,44,29.84,29.67,13,5,16,0.00
2013-5-21,73.0,63.2,52.0,54.0,49.2,46.0,87,62,38,29.88,29.75,14,6,23,0.00
2013-5-22,79.0,62.9,48.0,57.0,50.0,-99.9,93,66,36,29.96,29.83,13,6,18,0.00
2013-5-23,72.0,61.2,54.0,63.0,56.0,52.0,100,83,60,30.16,29.96,18,7,23,0.00
2013-5-24,77.0,66.9,57.0,70.0,62.2,55.0,93,85,77,30.20,30.05,15,11,23,0.00
2013-5-25,82.0,74.4,66.0,70.0,65.5,63.0,100,75,54,30.10,29.95,23,15,32,0.00
2013-5-26,84.0,75.0,66.0,72.0,67.9,64.0,100,79,62,30.00,29.84,24,15,32,0.00
2013-5-27,88.0,79.4,73.0,72.0,67.1,-99.9,88,68,55,29.74,29.59,28,19,38,0.00
2013-5-28,91.0,77.8,70.0,72.0,68.7,66.0,94,75,46,29.74,29.61,25,14,36,0.00
2013-5-29,79.0,72.5,63.0,70.0,66.8,59.0,94,83,69,29.72,29.50,30,19,40,0.00
2013-5-30,81.0,68.8,59.0,66.0,61.2,57.0,100,78,50,29.77,29.52,22,9,28,0.00
2013-5-31,82.0,72.2,64.0,68.0,64.9,57.0,100,79,44,29.78,29.64,16,4,22,0.00
2013-6-1,73.0,65.2,55.0,63.0,53.7,48.0,93,67,53,30.09,29.77,21,10,28,0.00
2013-6-2,73.0,61.4,50.0,54.0,49.6,46.0,93,68,40,30.17,30.01,14,7,18,0.00
2013-6-3,82.0,67.8,54.0,63.0,57.2,52.0,100,71,44,30.01,29.66,28,13,44,0.00
2013-6-4,82.0,75.3,64.0,70.0,64.1,52.0,94,69,36,29.95,29.64,24,9,38,0.00
2013-6-5,72.0,67.2,59.0,68.0,62.7,55.0,100,85,68,30.04,29.76,21,9,33,0.00
2013-6-6,77.0,65.5,54.0,59.0,55.0,52.0,100,71,43,30.05,29.98,14,7,20,0.00
2013-6-7,81.0,67.6,54.0,59.0,55.9,52.0,100,69,41,30.05,29.89,9,3,0,0.00
2013-6-8,84.0,71.0,63.0,64.0,59.5,57.0,93,69,42,29.91,29.72,24,13,35,0.00
2013-6-9,88.0,72.8,59.0,70.0,59.9,52.0,100,68,33,29.94,29.84,15,5,21,0.00
2013-6-10,99.0,80.9,63.0,70.0,64.4,61.0,93,61,36,29.90,29.78,16,8,21,0.00
2013-6-11,97.0,86.1,73.0,66.0,59.6,55.0,58,41,29,29.88,29.76,29,17,36,0.00
2013-6-12,99.0,85.4,73.0,73.0,68.0,64.0,83,58,32,29.99,29.79,20,10,29,0.00
2013-6-13,91.0,77.6,63.0,70.0,62.7,55.0,82,61,43,30.10,29.93,18,9,25,0.00
2013-6-14,99.0,84.3,72.0,72.0,65.5,55.0,88,58,23,29.99,29.84,23,11,31,0.00
2013-6-15,91.0,80.6,73.0,70.0,64.1,59.0,83,58,33,30.00,29.85,23,10,32,0.00
2013-6-16,93.0,79.9,66.0,72.0,64.7,61.0,88,62,34,30.03,29.88,28,7,36,0.00
2013-6-17,84.0,74.8,64.0,70.0,65.6,63.0,100,75,48,30.06,29.86,28,10,38,0.00
2013-6-18,90.0,77.2,63.0,70.0,62.1,52.0,100,65,29,30.08,29.93,23,4,31,0.00
2013-6-19,90.0,75.8,64.0,70.0,64.5,-99.9,93,71,43,30.02,29.89,18,10,24,0.00
2013-6-20,97.0,79.1,72.0,72.0,70.0,63.0,94,76,32,29.96,29.83,28,15,36,0.00
2013-6-22,95.0,89.3,82.0,66.0,63.8,61.0,58,43,32,29.92,29.80,28,20,37,0.00
2013-6-23,97.0,83.8,75.0,70.0,65.6,59.0,83,56,31,29.88,29.80,28,16,35,0.00
2013-6-24,93.0,82.4,73.0,70.0,66.4,64.0,83,60,38,29.91,29.76,29,16,38,0.00
2013-6-25,100.0,90.8,79.0,75.0,67.7,64.0,88,49,31,29.82,29.68,27,18,36,0.00
2013-6-26,102.0,87.4,73.0,75.0,71.1,64.0,94,62,29,29.93,29.79,13,6,20,0.00
2013-6-27,108.0,87.5,73.0,75.0,70.6,63.0,94,62,28,30.04,29.80,24,8,40,0.00
2013-6-28,99.0,82.1,70.0,72.0,66.5,59.0,100,64,30,30.10,29.95,16,8,21,0.00
2013-6-29,93.0,80.3,66.0,64.0,57.9,50.0,82,50,28,30.05,29.91,21,9,32,0.00
2013-6-30,84.0,72.4,59.0,61.0,54.2,48.0,87,56,30,30.10,29.98,18,10,24,0.00
2013-7-1,84.0,69.7,55.0,57.0,50.9,45.0,93,57,24,30.19,30.10,16,8,24,0.00
2013-7-2,88.0,70.6,55.0,54.0,50.5,45.0,87,53,26,30.19,30.08,14,6,22,0.00
2013-7-3,88.0,72.8,61.0,57.0,51.8,48.0,82,50,25,30.15,29.98,14,6,18,0.00
2013-7-4,91.0,78.2,64.0,61.0,54.6,48.0,82,46,24,30.04,29.90,15,8,18,0.00
2013-7-5,93.0,81.4,70.0,61.0,59.7,57.0,73,49,31,29.96,29.82,24,14,35,0.00
2013-7-6,93.0,78.2,70.0,68.0,64.0,55.0,88,63,29,29.95,29.83,21,12,33,0.00
2013-7-7,100.0,87.1,73.0,66.0,62.0,57.0,69,46,24,29.99,29.89,23,15,29,0.00
2013-7-8,102.0,85.8,75.0,68.0,61.9,-99.9,69,49,22,30.06,29.94,17,12,24,0.00
2013-7-9,108.0,91.9,77.0,72.0,65.5,61.0,83,46,22,30.05,29.87,30,13,40,0.00
2013-7-10,100.0,86.4,70.0,72.0,63.0,-99.9,94,51,30,30.04,29.95,17,7,28,0.00
2013-7-11,95.0,84.8,79.0,73.0,68.6,64.0,74,59,36,30.07,29.93,20,10,30,0.00
2013-7-12,102.0,87.5,73.0,70.0,65.5,63.0,78,51,27,29.99,29.89,20,10,25,0.00
2013-7-13,104.0,90.6,77.0,70.0,67.1,63.0,78,49,26,29.99,29.88,18,11,25,0.00
2013-7-14,86.0,74.6,70.0,72.0,69.5,66.0,100,85,55,30.10,29.90,22,7,46,0.00
2013-7-15,81.0,70.1,64.0,70.0,65.0,61.0,100,85,60,30.20,30.08,18,6,24,0.00
2013-7-16,90.0,76.0,66.0,70.0,66.0,64.0,100,74,43,30.31,30.20,16,7,30,0.00
2013-7-17,91.0,77.9,70.0,72.0,69.9,66.0,100,78,46,30.35,30.22,18,4,24,0.00
2013-7-18,91.0,80.7,70.0,72.0,68.0,64.0,94,68,40,30.24,30.02,20,9,25,0.00
2013-7-19,97.0,84.2,72.0,70.0,66.4,63.0,88,58,32,30.06,29.89,15,9,21,0.00
2013-7-20,97.0,79.9,72.0,73.0,66.6,-99.9,100,68,34,29.96,29.83,23,8,32,0.00
2013-7-21,90.0,78.1,72.0,75.0,71.7,70.0,100,82,58,29.92,29.80,13,8,18,0.00
2013-7-22,91.0,77.4,72.0,75.0,70.1,66.0,94,79,52,29.91,29.81,27,8,38,0.00
2013-7-23,93.0,83.4,72.0,75.0,70.6,64.0,94,66,52,29.96,29.78,18,10,29,0.00
2013-7-24,88.0,77.9,70.0,72.0,69.0,63.0,100,77,43,30.08,29.93,14,8,20,0.00
2013-7-25,86.0,79.0,72.0,73.0,69.4,-99.9,100,74,58,30.07,30.00,17,9,23,0.00
2013-7-26,88.0,75.7,66.0,73.0,67.1,61.0,100,77,45,30.12,29.99,20,9,25,0.00
2013-7-27,81.0,70.8,61.0,64.0,60.3,55.0,93,71,50,30.14,29.97,39,9,60,0.00
2013-7-28,70.0,65.8,63.0,66.0,64.2,63.0,100,94,82,30.06,29.94,15,-2,21,0.00
2013-7-29,88.0,72.7,64.0,75.0,67.5,63.0,100,84,62,30.00,29.85,15,10,22,0.00
2013-7-30,81.0,76.0,70.0,73.0,71.6,70.0,100,86,74,30.12,30.04,10,5,0,0.00
2013-7-31,86.0,74.8,66.0,75.0,70.2,64.0,100,86,58,30.18,30.08,8,3,0,0.00
2013-8-1,90.0,78.0,66.0,72.0,68.7,64.0,100,76,45,30.14,29.95,13,6,17,0.00
2013-8-2,95.0,81.4,70.0,79.0,74.3,66.0,94,79,59,29.95,29.81,18,9,27,0.00
2013-8-3,90.0,80.5,73.0,75.0,72.8,70.0,100,78,58,30.06,29.89,18,11,23,0.00
2013-8-4,81.0,74.9,72.0,75.0,72.7,70.0,100,93,78,30.12,30.01,16,8,22,0.00
2013-8-5,91.0,79.0,72.0,79.0,73.7,68.0,100,86,59,30.01,29.83,29,8,37,0.00
2013-8-6,91.0,81.1,72.0,79.0,72.7,66.0,94,76,55,29.91,29.79,16,6,33,0.00
2013-8-7,84.0,78.3,72.0,75.0,71.2,64.0,94,79,61,29.96,29.81,17,9,18,0.00
2013-8-8,81.0,73.5,68.0,73.0,70.3,66.0,100,89,73,30.00,29.86,16,8,29,0.00
2013-8-9,73.0,68.7,64.0,70.0,65.4,63.0,100,90,73,30.17,29.98,15,10,21,0.00
2013-8-10,84.0,72.7,63.0,68.0,64.3,61.0,100,77,51,30.23,30.09,8,3,0,0.00
2013-8-11,82.0,76.1,64.0,73.0,69.1,64.0,100,79,61,30.16,30.01,12,4,17,0.00
2013-10-21,48.0,48.0,48.0,39.0,39.0,39.0,70,70,70,30.06,30.06,7,7,0,0.00
2013-10-25,36.0,36.0,36.0,28.0,28.0,28.0,74,74,74,30.42,30.42,6,6,0,0.00
2013-10-26,63.0,63.0,63.0,37.0,37.0,37.0,39,39,39,30.17,30.17,17,17,22,0.00
2013-11-12,27.0,27.0,27.0,18.0,18.0,18.0,68,68,68,30.67,30.67,5,5,0,0.00
2013-11-15,36.0,36.0,36.0,32.0,32.0,32.0,86,86,86,29.89,29.88,6,6,0,0.00
2013-11-16,-200.0,0.0,200.0,-99.9,-99.9,-99.9,0,0,100,29.41,29.41,9,9,0,0.00
2013-11-17,66.0,66.0,66.0,18.0,18.0,18.0,15,15,15,29.87,29.87,24,24,37,0.00
2013-12-5,16.0,16.0,16.0,10.0,10.0,10.0,78,78,78,30.34,30.34,13,13,0,0.00
2013-12-7,-200.0,0.0,200.0,-99.9,-99.9,-99.9,0,0,100,30.26,30.26,10,10,0,0.00
2013-12-9,19.0,18.5,18.0,0.0,0.0,0.0,44,42,41,30.30,30.28,8,6,0,0.00
2013-12-10,34.0,34.0,34.0,16.0,16.0,16.0,47,47,47,30.10,30.10,13,13,0,0.00
2013-12-11,32.0,22.2,19.0,12.0,9.8,9.0,62,57,43,30.57,30.54,9,6,0,0.00
2013-12-17,34.0,34.0,34.0,25.0,25.0,25.0,69,69,69,30.15,30.15,6,6,0,0.00
2013-12-19,46.0,46.0,46.0,43.0,43.0,43.0,87,87,87,29.64,29.64,8,8,0,0.00
2013-12-20,25.0,21.5,18.0,16.0,15.0,14.0,85,76,68,29.94,29.91,15,10,24,0.00
2013-12-21,-200.0,0.0,200.0,-99.9,-99.9,-99.9,0,0,100,29.73,29.73,13,13,0,0.00
2013-12-22,21.0,21.0,21.0,18.0,18.0,18.0,85,85,85,29.94,29.94,9,9,0,0.00